Simultaneous Nadir Overpasses (SNOs) Predictions

Prediction of SNOs between NOAA-19 and TERRA Satellite Orbit:

Table of predicted SNOs for the next 14.0 days since TLE Epoch: 12/20/2014
Index Date (NOAA-19) Time (NOAA-19) Lat,Lon (NOAA-19) SZA (NOAA-19 ) Date (TERRA) Time (TERRA) Lat,Lon (TERRA) SZA (TERRA ) Distance(km) Time Diff (sec)
1 12/21/2014 13:19:05 -71.84, 161.82 84.82 12/21/2014 13:20:14 -71.74, 163.28 84.90 51.95 69
2 12/21/2014 14:09:52 71.27, -29.86 94.63 12/21/2014 14:09:48 71.27, -29.84 94.63 0.52 4
3 12/21/2014 15:00:38 -70.30, 139.04 86.32 12/21/2014 14:59:32 -70.39, 136.43 86.28 98.07 66
4 12/23/2014 18:53:29 71.34,-100.85 94.68 12/23/2014 18:54:05 71.32,-100.84 94.66 2.41 36
5 12/23/2014 19:44:31 -71.21, 66.62 85.46 12/23/2014 19:43:35 -71.20, 66.60 85.47 1.27 56
6 12/25/2014 23:37:08 71.53,-172.05 94.81 12/25/2014 23:38:20 71.45,-171.71 94.74 15.08 72
7 12/26/2014 00:28:07 -71.26, -4.33 85.46 12/26/2014 00:27:51 -71.27, -4.36 85.45 2.21 16
8 12/28/2014 05:11:43 -71.32, -75.31 85.49 12/28/2014 05:12:07 -71.32, -75.35 85.49 1.47 24
9 12/28/2014 06:02:40 71.21, 92.15 94.40 12/28/2014 06:01:34 71.22, 92.14 94.41 1.54 66
10 12/30/2014 09:55:19 -71.40,-146.32 85.54 12/30/2014 09:56:22 -71.39,-146.30 85.55 1.70 63
11 12/30/2014 10:46:16 71.27, 21.17 94.33 12/30/2014 10:45:49 71.29, 21.18 94.35 2.43 27
12 01/01/2015 15:29:52 71.34, -49.83 94.24 01/01/2015 15:30:04 71.33, -49.82 94.23 1.45 12




NCC Satellite Simultaneous Nadir Overpasses (SNOs) Prediction Service
